Location: Cortada Guamacho
(10.5667°N, 67.0833°W)
Time: 22:50:02
(UTC+00:00)

SWIFT - Pass Details

Date: 07 July 2022
Orbit: 539 x 553 km, 20.6° (Epoch: 07 August)

Event Time Altitude Azimuth Distance (km) Brightness Sun altitude
Exits shadow 09:32:21 10° 220° (SW) 1,757 4.3 -9.7°
Maximum altitude 09:33:34 11° 202° (SSW) 1,688 4.4 -9.4°
Drops below altitude 10° 09:34:57 10° 182° (S) 1,779 4.7 -9.1°
Sets 09:38:42 0° 148° (SSE) 2,670 5.9 -8.3°
